| time (UTC) | temp F | wind direction | speed MPH | gust MPH | rain 1hr in | rain 24hr in | rain mn in | humidity % | barometer mb |
| 20260505171550 | 57 | 9 | 3.0 | 9.0 | 0.00 | 0.00 | 0.00 | 57 | 1012.9 |
| 20260505171035 | 56 | 29 | 3.0 | 9.0 | 0.00 | 0.00 | 0.00 | 58 | 1013.0 |
| 20260505170534 | 56 | 34 | 2.0 | 9.0 | 0.00 | 0.00 | 0.00 | 57 | 1012.9 |
| 20260505170048 | 56 | 28 | 2.0 | 9.0 | 0.00 | 0.00 | 0.00 | 57 | 1012.9 |
| 20260505165534 | 56 | 79 | 1.0 | 7.0 | 0.00 | 0.00 | 0.00 | 60 | 1012.9 |
| 20260505165035 | 56 | 317 | 2.0 | 8.0 | 0.00 | 0.00 | 0.00 | 57 | 1012.8 |
| 20260505164558 | 56 | 46 | 2.0 | 8.0 | 0.00 | 0.00 | 0.00 | 57 | 1012.8 |
| 20260505164035 | 56 | 19 | 2.0 | 6.0 | 0.00 | 0.00 | 0.00 | 56 | 1012.9 |
| 20260505163534 | 56 | 10 | 2.0 | 6.0 | 0.00 | 0.00 | 0.00 | 56 | 1012.8 |
| 20260505163051 | 56 | 37 | 2.0 | 9.0 | 0.00 | 0.00 | 0.00 | 57 | 1012.8 |
| 20260505162536 | 56 | 64 | 3.0 | 9.0 | 0.00 | 0.00 | 0.00 | 57 | 1012.8 |
| 20260505162034 | 56 | 50 | 2.0 | 10.0 | 0.00 | 0.00 | 0.00 | 59 | 1012.7 |
| 20260505161549 | 56 | 331 | 2.0 | 10.0 | 0.00 | 0.00 | 0.00 | 59 | 1012.8 |
| 20260505161033 | 56 | 173 | 4.0 | 12.0 | 0.00 | 0.00 | 0.00 | 57 | 1012.9 |
| 20260505160535 | 57 | 0 | 3.0 | 12.0 | 0.00 | 0.00 | 0.00 | 58 | 1012.8 |
| 20260505153106 | 59 | 318 | 3.0 | 11.0 | 0.00 | 0.00 | 0.00 | 59 | 1013.0 |
| 20260505152535 | 59 | 0 | 3.0 | 11.0 | 0.00 | 0.00 | 0.00 | 60 | 1013.0 |
| 20260505152033 | 59 | 49 | 3.0 | 12.0 | 0.00 | 0.00 | 0.00 | 58 | 1013.0 |
| 20260505151557 | 59 | 57 | 3.0 | 12.0 | 0.00 | 0.00 | 0.00 | 58 | 1012.9 |
| 20260505151034 | 60 | 352 | 2.0 | 14.0 | 0.00 | 0.00 | 0.00 | 58 | 1013.0 |
| 20260505150534 | 60 | 65 | 3.0 | 14.0 | 0.00 | 0.00 | 0.00 | 56 | 1013.1 |
| 20260505140536 | 58 | 264 | 2.0 | 8.0 | 0.00 | 0.00 | 0.00 | 55 | 1013.3 |
| 20260505125036 | 63 | 5 | 0.0 | 6.0 | 0.00 | 0.00 | 0.00 | 55 | 1013.4 |
| 20260505124550 | 62 | 294 | 1.0 | 6.0 | 0.00 | 0.00 | 0.00 | 53 | 1013.3 |
| 20260505124034 | 62 | 312 | 1.0 | 6.0 | 0.00 | 0.00 | 0.00 | 54 | 1013.5 |
| 20260505123535 | 61 | 0 | 1.0 | 5.0 | 0.00 | 0.00 | 0.00 | 54 | 1013.3 |
| 20260505123102 | 60 | 64 | 2.0 | 5.0 | 0.00 | 0.00 | 0.00 | 54 | 1013.5 |
| 20260505122537 | 61 | 26 | 1.0 | 5.0 | 0.00 | 0.00 | 0.00 | 55 | 1013.4 |
| 20260505122037 | 60 | 311 | 1.0 | 6.0 | 0.00 | 0.00 | 0.00 | 55 | 1013.4 |
| 20260505121547 | 60 | 118 | 1.0 | 6.0 | 0.00 | 0.00 | 0.00 | 54 | 1013.6 |
| 20260505121034 | 61 | 16 | 2.0 | 5.0 | 0.00 | 0.00 | 0.00 | 52 | 1013.4 |
| 20260505120534 | 61 | 22 | 1.0 | 8.0 | 0.00 | 0.00 | 0.00 | 53 | 1013.5 |
| 20260505120046 | 60 | 18 | 2.0 | 9.0 | 0.00 | 0.00 | 0.00 | 55 | 1013.3 |
| 20260505115534 | 60 | 244 | 1.0 | 11.0 | 0.00 | 0.00 | 0.00 | 54 | 1013.6 |
| 20260505115036 | 61 | 180 | 2.0 | 11.0 | 0.00 | 0.00 | 0.00 | 54 | 1013.7 |
| 20260505114549 | 61 | 234 | 3.0 | 9.0 | 0.00 | 0.00 | 0.00 | 57 | 1013.7 |
| 20260505114035 | 60 | 226 | 1.0 | 9.0 | 0.00 | 0.00 | 0.00 | 54 | 1013.5 |
| 20260505113534 | 61 | 49 | 2.0 | 9.0 | 0.00 | 0.00 | 0.00 | 56 | 1013.7 |
| 20260505113042 | 60 | 277 | 1.0 | 8.0 | 0.00 | 0.00 | 0.00 | 55 | 1013.7 |
| 20260505112534 | 60 | 0 | 1.0 | 8.0 | 0.00 | 0.00 | 0.00 | 56 | 1013.7 |
| 20260505112034 | 59 | 11 | 2.0 | 6.0 | 0.00 | 0.00 | 0.00 | 59 | 1013.6 |
| 20260505111552 | 58 | 340 | 2.0 | 9.0 | 0.00 | 0.00 | 0.00 | 57 | 1013.8 |
| 20260505111034 | 59 | 263 | 3.0 | 9.0 | 0.00 | 0.00 | 0.00 | 56 | 1013.7 |
| 20260505110535 | 59 | 13 | 0.0 | 10.0 | 0.00 | 0.00 | 0.00 | 55 | 1013.8 |
| 20260505102034 | 61 | 140 | 2.0 | 8.0 | 0.00 | 0.00 | 0.00 | 58 | 1014.0 |
| 20260505101545 | 61 | 350 | 1.0 | 8.0 | 0.00 | 0.00 | 0.00 | 57 | 1014.0 |
| 20260505101037 | 60 | 352 | 2.0 | 8.0 | 0.00 | 0.00 | 0.00 | 58 | 1013.8 |
| 20260505100538 | 60 | 0 | 1.0 | 8.0 | 0.00 | 0.00 | 0.00 | 58 | 1013.9 |
| 20260505100051 | 59 | 177 | 2.0 | 8.0 | 0.00 | 0.00 | 0.00 | 61 | 1013.9 |
| 20260505095534 | 59 | 352 | 0.0 | 6.0 | 0.00 | 0.00 | 0.00 | 58 | 1013.9 |
| 20260505095118 | 59 | 15 | 1.0 | 10.0 | 0.00 | 0.00 | 0.00 | 58 | 1014.0 |
| 20260505094544 | 59 | 284 | 1.0 | 10.0 | 0.00 | 0.00 | 0.00 | 62 | 1014.0 |
| 20260505094037 | 58 | 335 | 2.0 | 8.0 | 0.00 | 0.00 | 0.00 | 61 | 1014.0 |
| 20260505093538 | 58 | 39 | 2.0 | 8.0 | 0.00 | 0.00 | 0.00 | 63 | 1014.1 |
| 20260505093048 | 57 | 316 | 1.0 | 4.0 | 0.00 | 0.00 | 0.00 | 62 | 1013.9 |
| 20260505092535 | 57 | 53 | 1.0 | 3.0 | 0.00 | 0.00 | 0.00 | 63 | 1014.0 |
| 20260505092037 | 56 | 184 | 1.0 | 4.0 | 0.00 | 0.00 | 0.00 | 66 | 1014.0 |
| 20260505091557 | 56 | 0 | 1.0 | 4.0 | 0.00 | 0.00 | 0.00 | 65 | 1014.0 |
| 20260505091037 | 55 | 57 | 0.0 | 6.0 | 0.00 | 0.00 | 0.00 | 67 | 1014.1 |
| 20260505090538 | 55 | 0 | 1.0 | 6.0 | 0.00 | 0.00 | 0.00 | 64 | 1014.1 |
| 20260505090054 | 55 | 46 | 1.0 | 6.0 | 0.00 | 0.00 | 0.00 | 66 | 1014.1 |
| 20260505085538 | 54 | 44 | 1.0 | 6.0 | 0.00 | 0.00 | 0.00 | 66 | 1014.1 |
| 20260505085037 | 54 | 123 | 1.0 | 6.0 | 0.00 | 0.00 | 0.00 | 66 | 1014.1 |
| 20260505084551 | 54 | 104 | 2.0 | 6.0 | 0.00 | 0.00 | 0.00 | 69 | 1014.0 |
| 20260505084037 | 53 | 111 | 2.0 | 6.0 | 0.00 | 0.00 | 0.00 | 69 | 1013.9 |
| 20260505083534 | 53 | 15 | 1.0 | 4.0 | 0.00 | 0.00 | 0.00 | 70 | 1013.9 |
| 20260505083054 | 52 | 13 | 1.0 | 6.0 | 0.00 | 0.00 | 0.00 | 70 | 1013.9 |
| 20260505082534 | 52 | 292 | 1.0 | 6.0 | 0.00 | 0.00 | 0.00 | 70 | 1014.0 |
| 20260505082034 | 52 | 96 | 1.0 | 4.0 | 0.00 | 0.00 | 0.00 | 69 | 1014.1 |
| 20260505081557 | 52 | 360 | 1.0 | 7.0 | 0.00 | 0.00 | 0.00 | 71 | 1014.1 |
| 20260505081038 | 52 | 0 | 1.0 | 7.0 | 0.00 | 0.00 | 0.00 | 70 | 1014.1 |
| 20260505080539 | 52 | 82 | 1.0 | 7.0 | 0.00 | 0.00 | 0.00 | 70 | 1014.1 |
| 20260505080052 | 52 | 17 | 1.0 | 5.0 | 0.00 | 0.00 | 0.00 | 70 | 1014.1 |
| 20260505075534 | 52 | 60 | 1.0 | 5.0 | 0.00 | 0.00 | 0.00 | 70 | 1014.2 |
| 20260505075034 | 52 | 43 | 0.0 | 5.0 | 0.00 | 0.00 | 0.00 | 70 | 1014.2 |
| 20260505074602 | 52 | 244 | 0.0 | 5.0 | 0.00 | 0.00 | 0.00 | 70 | 1014.1 |
| 20260505074034 | 52 | 24 | 2.0 | 5.0 | 0.00 | 0.00 | 0.00 | 70 | 1014.1 |
| 20260505073535 | 52 | 0 | 1.0 | 5.0 | 0.00 | 0.00 | 0.00 | 70 | 1014.1 |
| 20260505073044 | 52 | 0 | 1.0 | 10.0 | 0.00 | 0.00 | 0.00 | 70 | 1014.2 |
| 20260505072538 | 51 | 35 | 2.0 | 10.0 | 0.00 | 0.00 | 0.00 | 69 | 1014.2 |
| 20260505072036 | 51 | 34 | 2.0 | 8.0 | 0.00 | 0.00 | 0.00 | 70 | 1014.2 |
| 20260505071545 | 51 | 86 | 1.0 | 10.0 | 0.00 | 0.00 | 0.00 | 71 | 1014.3 |
| 20260505071038 | 50 | 0 | 1.0 | 10.0 | 0.00 | 0.00 | 0.00 | 72 | 1014.1 |
| 20260505070538 | 50 | 23 | 1.0 | 8.0 | 0.00 | 0.00 | 0.00 | 72 | 1014.0 |
| 20260505070048 | 50 | 48 | 1.0 | 8.0 | 0.00 | 0.00 | 0.00 | 72 | 1014.1 |
| 20260505065535 | 49 | 46 | 2.0 | 7.0 | 0.00 | 0.00 | 0.00 | 72 | 1014.1 |
| 20260505065034 | 49 | 37 | 2.0 | 11.0 | 0.00 | 0.00 | 0.00 | 72 | 1014.1 |
| 20260505064546 | 49 | 24 | 2.0 | 11.0 | 0.00 | 0.00 | 0.00 | 71 | 1014.1 |
| 20260505064034 | 49 | 352 | 3.0 | 11.0 | 0.00 | 0.00 | 0.00 | 71 | 1014.0 |
| 20260505063534 | 49 | 349 | 2.0 | 11.0 | 0.00 | 0.00 | 0.00 | 71 | 1014.1 |
| 20260505063044 | 49 | 34 | 2.0 | 11.0 | 0.00 | 0.00 | 0.00 | 72 | 1014.0 |
| 20260505062535 | 49 | 5 | 2.0 | 9.0 | 0.00 | 0.00 | 0.00 | 72 | 1014.0 |
| 20260505062035 | 49 | 36 | 2.0 | 9.0 | 0.00 | 0.00 | 0.00 | 72 | 1014.0 |
| 20260505061618 | 49 | 46 | 1.0 | 6.0 | 0.00 | 0.00 | 0.00 | 73 | 1013.9 |
| 20260505061032 | 49 | 67 | 1.0 | 6.0 | 0.00 | 0.00 | 0.00 | 74 | 1014.0 |
| 20260505060538 | 49 | 36 | 1.0 | 4.0 | 0.00 | 0.00 | 0.00 | 75 | 1013.9 |
| 20260505060052 | 49 | 0 | 0.0 | 5.0 | 0.00 | 0.00 | 0.00 | 75 | 1014.0 |
| 20260505055534 | 49 | 339 | 1.0 | 5.0 | 0.00 | 0.00 | 0.00 | 75 | 1013.9 |
| 20260505055038 | 48 | 0 | 1.0 | 4.0 | 0.00 | 0.00 | 0.00 | 76 | 1013.9 |
| 20260505054557 | 49 | 84 | 0.0 | 3.0 | 0.00 | 0.00 | 0.00 | 76 | 1013.9 |
| 20260505054037 | 48 | 0 | 0.0 | 3.0 | 0.00 | 0.00 | 0.00 | 76 | 1013.8 |
| 20260505053534 | 48 | 5 | 0.0 | 5.0 | 0.00 | 0.00 | 0.00 | 76 | 1013.8 |
| 20260505053045 | 48 | 36 | 0.0 | 5.0 | 0.00 | 0.00 | 0.00 | 77 | 1014.0 |
| 20260505052535 | 48 | 0 | 0.0 | 5.0 | 0.00 | 0.00 | 0.00 | 77 | 1014.0 |
| 20260505052034 | 48 | 49 | 2.0 | 5.0 | 0.00 | 0.00 | 0.00 | 78 | 1013.9 |
| 20260505051546 | 48 | 34 | 1.0 | 8.0 | 0.00 | 0.00 | 0.00 | 79 | 1013.8 |
| 20260505051033 | 48 | 0 | 1.0 | 8.0 | 0.00 | 0.00 | 0.00 | 79 | 1014.0 |
| 20260505050533 | 48 | 72 | 2.0 | 8.0 | 0.00 | 0.00 | 0.00 | 80 | 1014.0 |
| 20260505041548 | 48 | 13 | 0.0 | 4.0 | 0.00 | 0.00 | 0.00 | 86 | 1013.9 |
| 20260505041034 | 49 | 0 | 0.0 | 4.0 | 0.00 | 0.00 | 0.00 | 86 | 1013.9 |
| 20260505040533 | 49 | 0 | 0.0 | 8.0 | 0.00 | 0.00 | 0.00 | 86 | 1013.9 |
| 20260505040057 | 49 | 352 | 1.0 | 8.0 | 0.00 | 0.00 | 0.00 | 86 | 1013.8 |
| 20260505035537 | 49 | 36 | 1.0 | 4.0 | 0.00 | 0.00 | 0.00 | 86 | 1013.8 |
| 20260505035034 | 49 | 0 | 1.0 | 4.0 | 0.00 | 0.00 | 0.00 | 87 | 1013.9 |
| 20260505034545 | 49 | 46 | 1.0 | 3.0 | 0.00 | 0.00 | 0.00 | 87 | 1013.9 |
| 20260505034037 | 49 | 25 | 0.0 | 4.0 | 0.00 | 0.00 | 0.00 | 87 | 1013.9 |
| 20260505033535 | 49 | 0 | 0.0 | 4.0 | 0.00 | 0.00 | 0.00 | 87 | 1013.9 |
| 20260505033052 | 49 | 279 | 0.0 | 4.0 | 0.00 | 0.00 | 0.00 | 87 | 1013.9 |
| 20260505032536 | 49 | 0 | 0.0 | 4.0 | 0.00 | 0.00 | 0.00 | 87 | 1013.9 |
| 20260505032039 | 49 | 39 | 0.0 | 4.0 | 0.00 | 0.00 | 0.00 | 87 | 1014.0 |
| 20260505031542 | 49 | 0 | 0.0 | 4.0 | 0.00 | 0.00 | 0.00 | 87 | 1014.0 |
| 20260505031038 | 49 | 352 | 0.0 | 4.0 | 0.00 | 0.00 | 0.00 | 87 | 1014.0 |
| 20260505030539 | 49 | 0 | 0.0 | 10.0 | 0.00 | 0.00 | 0.00 | 87 | 1014.1 |
| 20260505030050 | 49 | 71 | 1.0 | 10.0 | 0.00 | 0.00 | 0.00 | 88 | 1014.1 |
| 20260505025535 | 49 | 72 | 2.0 | 8.0 | 0.00 | 0.00 | 0.00 | 88 | 1013.9 |
| 20260505025033 | 49 | 0 | 3.0 | 8.0 | 0.00 | 0.00 | 0.00 | 88 | 1014.0 |
| 20260505024606 | 49 | 70 | 1.0 | 8.0 | 0.00 | 0.00 | 0.00 | 88 | 1014.0 |
| 20260505024037 | 49 | 0 | 2.0 | 8.0 | 0.00 | 0.00 | 0.00 | 88 | 1014.0 |
| 20260505023537 | 49 | 115 | 1.0 | 5.0 | 0.00 | 0.00 | 0.00 | 88 | 1014.1 |
| 20260505023046 | 49 | 67 | 1.0 | 5.0 | 0.00 | 0.00 | 0.00 | 87 | 1014.0 |
| 20260505022534 | 49 | 78 | 1.0 | 5.0 | 0.00 | 0.00 | 0.00 | 88 | 1014.0 |
| 20260505022035 | 49 | 0 | 1.0 | 4.0 | 0.00 | 0.00 | 0.00 | 87 | 1014.0 |
| 20260505021606 | 49 | 44 | 1.0 | 4.0 | 0.00 | 0.00 | 0.00 | 87 | 1014.0 |
| 20260505021034 | 49 | 67 | 1.0 | 4.0 | 0.00 | 0.00 | 0.00 | 87 | 1014.0 |
| 20260505020534 | 49 | 348 | 1.0 | 6.0 | 0.00 | 0.00 | 0.00 | 87 | 1013.9 |
| 20260505020051 | 49 | 20 | 1.0 | 6.0 | 0.00 | 0.00 | 0.00 | 87 | 1014.0 |
| 20260505015538 | 49 | 32 | 2.0 | 4.0 | 0.00 | 0.00 | 0.00 | 87 | 1014.0 |
| 20260505015037 | 49 | 22 | 0.0 | 3.0 | 0.00 | 0.00 | 0.00 | 87 | 1014.1 |
| 20260505014548 | 49 | 0 | 0.0 | 3.0 | 0.00 | 0.00 | 0.00 | 86 | 1014.1 |
| 20260505014037 | 50 | 0 | 0.0 | 4.0 | 0.00 | 0.00 | 0.00 | 86 | 1014.1 |
| 20260505013538 | 50 | 0 | 0.0 | 4.0 | 0.00 | 0.00 | 0.00 | 86 | 1014.2 |
| 20260505013046 | 50 | 0 | 0.0 | 4.0 | 0.00 | 0.00 | 0.00 | 86 | 1014.2 |
| 20260505012537 | 50 | 0 | 1.0 | 4.0 | 0.00 | 0.00 | 0.00 | 85 | 1014.3 |
| 20260505012034 | 50 | 62 | 1.0 | 6.0 | 0.00 | 0.00 | 0.00 | 85 | 1014.4 |
| 20260505011553 | 50 | 73 | 1.0 | 6.0 | 0.00 | 0.00 | 0.00 | 85 | 1014.3 |
| 20260505011036 | 50 | 26 | 1.0 | 8.0 | 0.00 | 0.00 | 0.00 | 84 | 1014.2 |
| 20260505010534 | 50 | 15 | 1.0 | 8.0 | 0.00 | 0.00 | 0.00 | 84 | 1014.3 |
| 20260505010054 | 50 | 81 | 2.0 | 8.0 | 0.00 | 0.00 | 0.00 | 84 | 1014.3 |
| 20260505005535 | 50 | 47 | 2.0 | 6.0 | 0.00 | 0.00 | 0.00 | 84 | 1014.4 |
| 20260505005035 | 51 | 61 | 1.0 | 7.0 | 0.00 | 0.00 | 0.00 | 84 | 1014.4 |
| 20260505004550 | 51 | 15 | 2.0 | 7.0 | 0.00 | 0.00 | 0.00 | 84 | 1014.4 |
| 20260505004034 | 51 | 59 | 1.0 | 6.0 | 0.00 | 0.00 | 0.00 | 83 | 1014.5 |
| 20260505003535 | 51 | 21 | 2.0 | 6.0 | 0.00 | 0.00 | 0.00 | 83 | 1014.4 |
| 20260505003049 | 51 | 64 | 1.0 | 5.0 | 0.00 | 0.00 | 0.00 | 83 | 1014.5 |
| 20260505002534 | 51 | 343 | 1.0 | 5.0 | 0.00 | 0.00 | 0.00 | 83 | 1014.5 |
| 20260505002037 | 51 | 61 | 2.0 | 5.0 | 0.00 | 0.00 | 0.00 | 83 | 1014.5 |
| 20260505001543 | 51 | 5 | 1.0 | 5.0 | 0.00 | 0.00 | 0.00 | 84 | 1014.6 |
| 20260505001035 | 51 | 32 | 0.0 | 3.0 | 0.00 | 0.00 | 0.00 | 84 | 1014.7 |
| 20260505000535 | 51 | 59 | 0.0 | 3.0 | 0.00 | 0.00 | 0.00 | 84 | 1014.7 |
| 20260505000048 | 51 | 32 | 0.0 | 3.0 | 0.00 | 0.00 | 0.00 | 84 | 1014.7 |
| 20260504235535 | 51 | 54 | 0.0 | 3.0 | 0.00 | 0.00 | 0.00 | 84 | 1014.6 |
| 20260504235038 | 52 | 0 | 0.0 | 3.0 | 0.00 | 0.00 | 0.00 | 84 | 1014.7 |
| 20260504234550 | 52 | 0 | 0.0 | 3.0 | 0.00 | 0.00 | 0.00 | 84 | 1014.7 |
| 20260504234040 | 52 | 0 | 0.0 | 3.0 | 0.00 | 0.00 | 0.00 | 84 | 1014.8 |
| 20260504233536 | 52 | 0 | 0.0 | 3.0 | 0.00 | 0.00 | 0.00 | 84 | 1014.8 |
| 20260504233058 | 52 | 0 | 0.0 | 4.0 | 0.00 | 0.00 | 0.00 | 84 | 1014.7 |
| 20260504232534 | 52 | 42 | 0.0 | 4.0 | 0.00 | 0.00 | 0.00 | 84 | 1014.8 |
| 20260504232034 | 52 | 35 | 1.0 | 5.0 | 0.00 | 0.00 | 0.00 | 84 | 1014.9 |
| 20260504231548 | 52 | 55 | 1.0 | 5.0 | 0.00 | 0.00 | 0.00 | 84 | 1014.8 |
| 20260504231034 | 52 | 352 | 1.0 | 3.0 | 0.00 | 0.00 | 0.00 | 83 | 1014.7 |
| 20260504230537 | 52 | 5 | 0.0 | 3.0 | 0.00 | 0.00 | 0.00 | 83 | 1014.7 |
| 20260504230046 | 52 | 32 | 0.0 | 4.0 | 0.00 | 0.00 | 0.00 | 83 | 1014.7 |
| 20260504225535 | 52 | 42 | 1.0 | 4.0 | 0.00 | 0.01 | 0.00 | 83 | 1014.7 |
| 20260504225035 | 52 | 26 | 1.0 | 5.0 | 0.00 | 0.01 | 0.00 | 83 | 1014.6 |
| 20260504224545 | 52 | 23 | 1.0 | 5.0 | 0.00 | 0.01 | 0.00 | 83 | 1014.7 |
| 20260504224036 | 52 | 36 | 1.0 | 4.0 | 0.00 | 0.01 | 0.00 | 83 | 1014.7 |
| 20260504223535 | 52 | 347 | 1.0 | 5.0 | 0.00 | 0.01 | 0.00 | 82 | 1014.7 |
| 20260504223054 | 52 | 348 | 0.0 | 5.0 | 0.00 | 0.01 | 0.00 | 82 | 1014.7 |
| 20260504222534 | 52 | 37 | 1.0 | 5.0 | 0.00 | 0.01 | 0.00 | 83 | 1014.7 |
| 20260504222034 | 52 | 47 | 2.0 | 5.0 | 0.00 | 0.01 | 0.00 | 83 | 1014.8 |
| 20260504221556 | 52 | 32 | 2.0 | 5.0 | 0.00 | 0.01 | 0.00 | 83 | 1014.8 |
| 20260504221036 | 52 | 16 | 1.0 | 4.0 | 0.00 | 0.01 | 0.00 | 83 | 1014.8 |
| 20260504220534 | 52 | 11 | 0.0 | 3.0 | 0.00 | 0.01 | 0.00 | 83 | 1014.9 |
| 20260504220117 | 52 | 0 | 0.0 | 3.0 | 0.00 | 0.01 | 0.00 | 82 | 1014.9 |
| 20260504215534 | 52 | 352 | 0.0 | 2.0 | 0.00 | 0.01 | 0.00 | 82 | 1014.7 |
| 20260504215036 | 52 | 0 | 0.0 | 3.0 | 0.00 | 0.01 | 0.00 | 82 | 1014.7 |
| 20260504214547 | 52 | 55 | 1.0 | 3.0 | 0.00 | 0.01 | 0.00 | 82 | 1014.7 |
| 20260504214035 | 53 | 352 | 1.0 | 2.0 | 0.00 | 0.01 | 0.00 | 81 | 1014.8 |
| 20260504213534 | 53 | 0 | 0.0 | 3.0 | 0.00 | 0.01 | 0.00 | 81 | 1014.8 |
| 20260504213050 | 53 | 40 | 0.0 | 3.0 | 0.00 | 0.01 | 0.00 | 81 | 1014.9 |
| 20260504212534 | 53 | 0 | 0.0 | 2.0 | 0.00 | 0.01 | 0.00 | 81 | 1014.9 |
| 20260504212037 | 53 | 0 | 0.0 | 2.0 | 0.00 | 0.01 | 0.00 | 81 | 1014.9 |
| 20260504211545 | 53 | 0 | 0.0 | 3.0 | 0.00 | 0.01 | 0.00 | 81 | 1014.9 |
| 20260504211034 | 53 | 0 | 0.0 | 3.0 | 0.00 | 0.01 | 0.00 | 80 | 1014.9 |
| 20260504210534 | 53 | 46 | 0.0 | 3.0 | 0.00 | 0.01 | 0.00 | 80 | 1014.8 |
| 20260504210048 | 53 | 21 | 0.0 | 3.0 | 0.00 | 0.01 | 0.00 | 80 | 1014.9 |
| 20260504205534 | 53 | 0 | 0.0 | 3.0 | 0.00 | 0.01 | 0.00 | 79 | 1014.9 |
| 20260504205034 | 53 | 350 | 0.0 | 3.0 | 0.00 | 0.01 | 0.00 | 79 | 1014.9 |
| 20260504204600 | 53 | 0 | 0.0 | 3.0 | 0.00 | 0.01 | 0.00 | 79 | 1014.9 |
| 20260504204035 | 54 | 71 | 0.0 | 2.0 | 0.00 | 0.01 | 0.00 | 79 | 1014.9 |
| 20260504203538 | 54 | 50 | 0.0 | 2.0 | 0.00 | 0.01 | 0.00 | 78 | 1014.9 |
| 20260504203042 | 54 | 28 | 0.0 | 2.0 | 0.00 | 0.01 | 0.00 | 78 | 1014.8 |
| 20260504202536 | 54 | 67 | 0.0 | 3.0 | 0.00 | 0.01 | 0.00 | 78 | 1014.8 |
| 20260504202037 | 54 | 0 | 1.0 | 3.0 | 0.00 | 0.01 | 0.00 | 78 | 1014.8 |
| 20260504201548 | 54 | 0 | 0.0 | 2.0 | 0.00 | 0.01 | 0.00 | 78 | 1014.8 |
| 20260504201037 | 54 | 61 | 0.0 | 2.0 | 0.00 | 0.01 | 0.00 | 78 | 1014.6 |
| 20260504200539 | 54 | 25 | 0.0 | 4.0 | 0.00 | 0.01 | 0.00 | 78 | 1014.6 |
| 20260504200047 | 54 | 0 | 0.0 | 4.0 | 0.00 | 0.01 | 0.00 | 77 | 1014.5 |
| 20260504195534 | 54 | 45 | 0.0 | 3.0 | 0.00 | 0.01 | 0.00 | 77 | 1014.5 |
| 20260504195035 | 54 | 0 | 0.0 | 3.0 | 0.00 | 0.01 | 0.00 | 77 | 1014.4 |
| 20260504194553 | 55 | 0 | 0.0 | 5.0 | 0.00 | 0.01 | 0.00 | 77 | 1014.4 |
| 20260504194034 | 55 | 29 | 1.0 | 5.0 | 0.00 | 0.01 | 0.00 | 77 | 1014.5 |
| 20260504193535 | 55 | 0 | 0.0 | 5.0 | 0.00 | 0.01 | 0.00 | 77 | 1014.4 |
| 20260504193054 | 55 | 0 | 0.0 | 2.0 | 0.00 | 0.01 | 0.00 | 77 | 1014.4 |
| 20260504192535 | 55 | 0 | 0.0 | 3.0 | 0.00 | 0.01 | 0.00 | 76 | 1014.4 |
| 20260504192034 | 56 | 0 | 0.0 | 3.0 | 0.00 | 0.01 | 0.00 | 76 | 1014.4 |
| 20260504191548 | 56 | 0 | 0.0 | 3.0 | 0.00 | 0.01 | 0.00 | 75 | 1014.3 |
| 20260504191036 | 56 | 0 | 0.0 | 3.0 | 0.00 | 0.01 | 0.00 | 75 | 1014.2 |
| 20260504190534 | 56 | 337 | 0.0 | 2.0 | 0.00 | 0.01 | 0.00 | 74 | 1014.2 |
| 20260504190046 | 56 | 0 | 0.0 | 2.0 | 0.00 | 0.01 | 0.00 | 74 | 1014.1 |
| 20260504185534 | 57 | 0 | 0.0 | 3.0 | 0.00 | 0.01 | 0.00 | 73 | 1014.1 |
| 20260504185035 | 57 | 17 | 0.0 | 3.0 | 0.00 | 0.01 | 0.00 | 73 | 1014.1 |
| 20260504184550 | 57 | 61 | 0.0 | 4.0 | 0.00 | 0.01 | 0.00 | 72 | 1014.0 |
| 20260504184035 | 57 | 49 | 0.0 | 4.0 | 0.00 | 0.01 | 0.00 | 72 | 1014.0 |
| 20260504183535 | 58 | 48 | 0.0 | 4.0 | 0.00 | 0.01 | 0.00 | 71 | 1014.0 |
| 20260504183056 | 58 | 63 | 0.0 | 4.0 | 0.00 | 0.01 | 0.00 | 71 | 1013.9 |
| 20260504182538 | 58 | 64 | 1.0 | 5.0 | 0.00 | 0.01 | 0.00 | 71 | 1013.8 |
| 20260504182034 | 59 | 74 | 1.0 | 5.0 | 0.00 | 0.01 | 0.00 | 71 | 1013.8 |
| 20260504181554 | 59 | 55 | 1.0 | 5.0 | 0.00 | 0.01 | 0.00 | 71 | 1013.6 |
| 20260504181035 | 59 | 59 | 1.0 | 8.0 | 0.00 | 0.01 | 0.00 | 70 | 1013.6 |
| 20260504180540 | 60 | 80 | 2.0 | 8.0 | 0.00 | 0.01 | 0.00 | 69 | 1013.6 |
| 20260504180053 | 60 | 57 | 1.0 | 4.0 | 0.00 | 0.01 | 0.00 | 69 | 1013.5 |
| 20260504175539 | 60 | 62 | 1.0 | 4.0 | 0.00 | 0.01 | 0.00 | 69 | 1013.5 |
| 20260504175035 | 61 | 74 | 0.0 | 6.0 | 0.00 | 0.01 | 0.00 | 68 | 1013.5 |
| 20260504174548 | 61 | 24 | 1.0 | 6.0 | 0.00 | 0.01 | 0.00 | 69 | 1013.5 |
| 20260504174035 | 61 | 115 | 1.0 | 4.0 | 0.00 | 0.01 | 0.00 | 68 | 1013.5 |
| 20260504173538 | 61 | 106 | 1.0 | 4.0 | 0.00 | 0.01 | 0.00 | 68 | 1013.5 |
| 20260504173045 | 61 | 23 | 1.0 | 4.0 | 0.00 | 0.01 | 0.00 | 68 | 1013.4 |
| 20260504172534 | 61 | 0 | 0.0 | 4.0 | 0.00 | 0.01 | 0.00 | 68 | 1013.5 |
| 20260504172035 | 62 | 63 | 1.0 | 4.0 | 0.00 | 0.01 | 0.00 | 68 | 1013.5 |